Regional Weather Roundup
Issued by NWS Sioux Falls, SD

Home | Current Version | Previous Version | Text Only | Print | Product List | Glossary On
Versions: 1 2 3 4 5 6 7 8 9 10 11 12 13 14 15 16 17 18 19 20 21 22 23 24 25 26 27 28 29 30 31 32 33 34 35 36 37 38 39 40 41 42 43 44 45 46 47 48 49 50
463
ASUS43 KFSD 130810
RWRFSD

WEATHER ROUNDUP FOR SE SOUTH DAKOTA/SW MINNESOTA/NW IOWA
NATIONAL WEATHER SERVICE SIOUX FALLS SD
200 AM CST SAT FEB 13 2016

NOTE: "FAIR" INDICATES FEW OR NO CLOUDS BELOW 12,000 FEET WITH NO
SIGNIFICANT WEATHER AND OR OBSTRUCTIONS TO VISIBILITY.


SDZ038>040-050-052>070-130900-
SOUTHEAST SOUTH DAKOTA

CITY           SKY/WX    TMP DP  RH WIND       PRES   REMARKS
BROOKINGS      CLOUDY    -7 -12  79 CALM      30.57F
CHAMBERLAIN    CLOUDY     9   2  72 SE13      30.50F WCI  -7
HURON          CLOUDY     3  -6  66 E8        30.59F WCI -10
MADISON        FAIR       0  -8  71 E3        30.56F
MITCHELL       CLOUDY     5  -3  69 E8        30.59F WCI  -8
SIOUX FALLS    CLOUDY    -2  -8  76 NE7       30.60F WCI -15
WINNER         LGT SNOW  17  10  74 SE15      30.43F WCI   2
YANKTON        CLOUDY     7  -2  66 E7        30.61F WCI  -5
$$

MNZ071-072-080-081-089-090-097-098-130900-
SOUTHWEST MINNESOTA

CITY           SKY/WX    TMP DP  RH WIND       PRES   REMARKS
FAIRMONT       CLOUDY    -2  -9  71 NW10      30.59S WCI -19
JACKSON        CLOUDY    -6 -11  77 NW9       30.59S WCI -22
LUVERNE        CLOUDY    -4  -9  77 CALM      30.61F
MARSHALL       CLOUDY    -6 -11  79 NW6       30.64S WCI -19
MONTEVIDEO     CLOUDY    -8 -11  84 N5        30.66F WCI -19
PIPESTONE      CLOUDY    -4 -15  59 CALM      30.57F
REDWOOD FALLS  CLOUDY    -4  -9  79 NW7       30.64R WCI -18
TRACY          CLOUDY    -5 -10  80 NW6       30.62R WCI -18
WINDOM         CLOUDY    -8 -11  84 NW6       30.60R WCI -21
WORTHINGTON    CLOUDY    -8 -13  77 NW6       30.59S WCI -21
$$

IAZ001>003-012>014-020>022-031-032-NEZ013-014-SDZ071-130900-
NORTHWEST IOWA

CITY           SKY/WX    TMP DP  RH WIND       PRES   REMARKS
CHEROKEE       CLOUDY    -3  -6  87 NE5       30.63S WCI -14
DENISON        CLOUDY     1  -4  78 N5        30.60F WCI  -8
ESTHERVILLE    CLOUDY    -6 -10  83 N6        30.60S WCI -19
LE MARS        CLOUDY     1  -4  78 NE7       30.64F WCI -11
ORANGE CITY    CLOUDY     0  -6  78 N5        30.60F WCI -10
SHELDON        CLOUDY    -8 -11  84 N6        30.60S WCI -21
SIOUX CITY     CLOUDY     6  -6  57 NE9       30.64S WCI  -8
SPENCER        CLOUDY    -6 -14  68 NW9       30.62R WCI -23
STORM LAKE     CLOUDY    -4  -8  84 N9        30.60F WCI -20
$$

ABBREVIATIONS USED IN REMARKS
   TC - TEMPERATURE IN CELSIUS
  WCI - WIND CHILL INDEX
   HX - HEAT INDEX
  VSB - VISIBILITY





USA.gov is the U.S. government's official web portal to all federal, state and local government web resources and services.